VANGUARD 3

Satellite information

Favourite Embed

Satellite Type and Status

PAYLOADIN ORBIT

Key statistics

Satellite VANGUARD 3 at a glance.

Uptime

24144

Days in orbit

Revolutions

≈ 11.6

Per day

Orbit

MEO

Medium Earth Orbit

Inclination

33.4

Latest

Satellite identification and parameters

Extended collection of information and parameters for VANGUARD 3.

Object identification

Identified? True

Debris? False

Object name: VANGUARD 3

International designator: 1959-007A

Object number (NORAD): 20

Object ID (CCSDS): 20

Country: UNITED STATES OF AMERICA (US)

Current information (Y/N): Y

RCS size: MEDIUM

Orbital parameters

Period: 123.997 minutes

Inclination: 33.3543 deg

SMA: 8236.988 km

Apoapsis: 3210.007 km

Periapsis: 507.698 km

RAAN: 34.8175 deg

Eccentricy: 0.16403502

Argument of periapsis: 231.1032 deg

Mean anomaly: 113.1663 deg

Mean motion: 11.61315306 rev/day

Mean motion (dot): 0.00003562 rev/day2

B* drag term: 0.0014152966 1/REarth

Two-line elements (TLE)

Creation date: Oct. 25, 2025, 3:11 a.m.

Reference frame: TEME

Reference center: EARTH

Epoch: Oct. 24, 2025, 3:04 p.m. UTC

TLE line 0: 0 VANGUARD 3

TLE line 1: 1 00020U 59007A 25297.62779557 .00003562 00000-0 14153-2 0 9998

TLE line 2: 2 00020 33.3543 34.8175 1640350 231.1032 113.1663 11.61315306457211

Live tracking on map

Real-time ground track for satellite VANGUARD 3.

In-orbit conjunctions

A list of the most updated potential collisions computed for object VANGUARD 3.

Target Orbit TCA Probability of collision Miss distance Type
METEOR 2-2 LEO 2024-08-25 10:09:53 0.0001789543 989.0 (m) PAYLOAD
DELTA 1 DEB SSO 2024-08-08 04:08:45 0.0001209027 811.0 (m) DEBRIS
COSMOS 2251 DEB LEO 2024-07-01 11:47:37 0.0001199473 216.0 (m) DEBRIS

Associated space launch

Vanguard 3 is a scientific satellite to measure the Earth's magnetic field, solar X-ray radiation and its effects on the Earth's atmosphere and the near-Earth micrometeoroid environment.

VANGUARD 3 was lifted into orbit during the mission ‘Vanguard | Vanguard III’, on board a Vanguard space rocket.

The launch took place on Sept. 18, 1959, 5:20 a.m. from Launch Complex 18A.

For more information about the launch, click the button.

Launch to space Vanguard | Vanguard III
Vanguard | Vanguard III

Agency: N/A

Status: Launch Successful

Launch date: Sept. 18, 1959, 5:20 a.m. UTC

Rocket: Vanguard

Launch pad: Launch Complex 18A

Location: Cape Canaveral SFS, FL, USA

...

Latest news about this satellite

There are no fresh news available about this satellite. Check back as we update our databases every day.


Newsletter sign-up

Weekly statistics, charts and insights to help you stay on top of the space industry.